TimeCDT,TemperatureF,Dew PointF,Humidity,Sea Level PressureIn,VisibilityMPH,Wind Direction,Wind SpeedMPH,Gust SpeedMPH,PrecipitationIn,Events,Conditions,WindDirDegrees,DateUTC
12:55 AM,47.1,33.6,59,29.92,10.0,SW,5.8,-,N/A,,Clear,220,2012-11-02 05:55:00
1:55 AM,45.5,34.2,65,29.91,10.0,SW,9.2,-,N/A,,Clear,220,2012-11-02 06:55:00
2:55 AM,47.1,34.2,61,29.91,10.0,WSW,6.9,-,N/A,,Clear,240,2012-11-02 07:55:00
3:55 AM,45.5,35.8,69,29.90,10.0,SW,9.2,-,N/A,,Clear,230,2012-11-02 08:55:00
4:55 AM,46.6,36.3,67,29.90,10.0,WSW,3.5,-,N/A,,Clear,250,2012-11-02 09:55:00
5:55 AM,45.1,36.5,72,29.92,10.0,West,3.5,-,N/A,,Clear,280,2012-11-02 10:55:00
6:55 AM,46.4,37.0,70,29.94,10.0,West,5.8,-,N/A,,Clear,280,2012-11-02 11:55:00
7:55 AM,45.5,37.2,73,29.97,10.0,Calm,Calm,-,N/A,,Clear,0,2012-11-02 12:55:00
8:55 AM,51.8,40.5,65,30.00,10.0,NW,6.9,-,N/A,,Clear,310,2012-11-02 13:55:00
9:55 AM,54.3,39.2,57,30.02,10.0,Variable,6.9,-,N/A,,Clear,0,2012-11-02 14:55:00
10:55 AM,57.7,38.5,49,30.02,10.0,Variable,4.6,-,N/A,,Clear,0,2012-11-02 15:55:00
11:55 AM,60.1,33.4,37,30.03,10.0,WNW,8.1,-,N/A,,Clear,290,2012-11-02 16:55:00
12:07 PM,60.8,32.0,34,30.02,1.5,Variable,4.6,-,N/A,,Haze,0,2012-11-02 17:07:00
12:16 PM,60.8,32.0,34,30.02,3.0,Variable,5.8,-,N/A,,Haze,0,2012-11-02 17:16:00
12:55 PM,62.8,31.8,31,30.02,10.0,Variable,3.5,-,N/A,,Clear,0,2012-11-02 17:55:00
1:55 PM,63.7,30.0,28,30.01,3.0,NW,6.9,-,N/A,,Haze,310,2012-11-02 18:55:00
2:23 PM,64.4,28.4,26,30.00,2.5,Variable,5.8,-,N/A,,Haze,0,2012-11-02 19:23:00
2:29 PM,64.4,30.2,28,30.00,1.8,NW,6.9,-,N/A,,Haze,310,2012-11-02 19:29:00
2:55 PM,63.5,29.5,28,30.00,1.5,Variable,5.8,-,N/A,,Haze,0,2012-11-02 19:55:00
3:02 PM,62.6,30.2,30,30.00,2.0,Variable,3.5,-,N/A,,Haze,0,2012-11-02 20:02:00
3:09 PM,62.6,30.2,30,30.00,3.0,Variable,5.8,-,N/A,,Haze,0,2012-11-02 20:09:00
3:24 PM,64.4,30.2,28,30.00,2.5,Variable,4.6,-,N/A,,Haze,0,2012-11-02 20:24:00
3:31 PM,64.4,30.2,28,30.00,1.8,Variable,3.5,-,N/A,,Haze,0,2012-11-02 20:31:00
3:36 PM,62.6,30.2,30,30.00,1.2,Calm,Calm,-,N/A,,Haze,0,2012-11-02 20:36:00
3:38 PM,62.6,30.2,30,30.00,1.0,NE,4.6,-,N/A,,Haze,40,2012-11-02 20:38:00
3:41 PM,62.6,32.0,32,30.00,1.2,Variable,3.5,-,N/A,,Haze,0,2012-11-02 20:41:00
3:45 PM,62.6,30.2,30,30.00,1.5,Calm,Calm,-,N/A,,Haze,0,2012-11-02 20:45:00
3:48 PM,62.6,30.2,30,30.00,2.0,Variable,3.5,-,N/A,,Haze,0,2012-11-02 20:48:00
3:55 PM,63.1,31.5,30,30.00,2.0,Calm,Calm,-,N/A,,Haze,0,2012-11-02 20:55:00
3:59 PM,62.6,30.2,30,30.01,1.8,Calm,Calm,-,N/A,,Haze,0,2012-11-02 20:59:00
4:28 PM,62.6,30.2,30,30.01,1.2,Calm,Calm,-,N/A,,Haze,0,2012-11-02 21:28:00
4:41 PM,60.8,30.2,31,30.01,1.5,Variable,4.6,-,N/A,,Haze,0,2012-11-02 21:41:00
4:49 PM,60.8,32.0,34,30.01,2.0,NE,8.1,-,N/A,,Haze,40,2012-11-02 21:49:00
4:55 PM,60.1,31.3,34,30.01,2.0,NE,6.9,-,N/A,,Haze,40,2012-11-02 21:55:00
4:58 PM,60.8,32.0,34,30.01,1.8,NNE,4.6,-,N/A,,Haze,20,2012-11-02 21:58:00
5:04 PM,59.0,32.0,36,30.01,1.2,NE,5.8,-,N/A,,Haze,40,2012-11-02 22:04:00
5:20 PM,59.0,32.0,36,30.02,1.5,NNE,3.5,-,N/A,,Haze,30,2012-11-02 22:20:00
5:55 PM,56.8,30.9,37,30.03,1.8,NNE,3.5,-,N/A,,Haze,20,2012-11-02 22:55:00
6:08 PM,55.4,32.0,41,30.04,2.0,Calm,Calm,-,N/A,,Haze,0,2012-11-02 23:08:00
6:17 PM,55.4,30.2,38,30.04,2.5,Variable,3.5,-,N/A,,Haze,0,2012-11-02 23:17:00
6:40 PM,53.6,32.0,44,30.04,0.5,NNE,3.5,-,N/A,,Haze,20,2012-11-02 23:40:00
6:47 PM,53.6,32.0,44,30.04,10.0,Calm,Calm,-,N/A,,Clear,0,2012-11-02 23:47:00
6:55 PM,52.9,31.6,44,30.05,10.0,North,-9999.0,-,N/A,,Clear,0,2012-11-02 23:55:00
7:55 PM,47.1,32.7,57,30.06,10.0,NNE,3.5,-,N/A,,Clear,30,2012-11-03 00:55:00
8:55 PM,46.2,32.9,60,30.05,10.0,NNE,3.5,-,N/A,,Clear,30,2012-11-03 01:55:00
9:55 PM,46.0,32.7,60,30.06,10.0,NE,5.8,-,N/A,,Clear,50,2012-11-03 02:55:00
10:55 PM,44.8,32.7,63,30.06,10.0,NE,3.5,-,N/A,,Clear,40,2012-11-03 03:55:00
11:55 PM,45.5,32.5,61,30.06,10.0,Calm,Calm,-,N/A,,Mostly Cloudy,0,2012-11-03 04:55:00